Location: Plainartige
(45.6866°N, 1.7993°E)
Time: 04:01:11
(UTC+00:00)

Vanguard 1 - Pass Details

Date: 30 May 2022
Orbit: 649 x 3833 km, 34.2° (Epoch: 06 July)

Event Time Altitude Azimuth Distance (km) Brightness Sun altitude
Exits shadow 01:48:35 10° 246° (WSW) 4,677 13.0 -17.4°
Reaches altitude 10° 01:48:37 10° 246° (WSW) 4,671 13.0 -17.4°
Maximum altitude 02:02:35 57° 172° (S) 3,482 12.5 -16.2°
Drops below altitude 10° 02:24:23 10° 103° (ESE) 6,930 14.7 -14.0°
Sets 02:30:01 0° 100° (E) 7,958 15.1 -13.4°
